• In Czech Republic
  • List of Countries
  • For 7 days
  • Water Temperature
  • Satellite Maps
  • Weather Map
  • Weather Widgets
  • user-avatar
    Login

    Hourly Weather Petropavlovsk

    Today, 18 June, Monday

    Time Temperature Precipitation Wind Pressure Humidity
    00:00 +7°C° 0 mm 3 mps 741 mmHg 85%
    01:00 +7°C° 0 mm 3 mps 740 mmHg 88%
    02:00 +5°C° 0 mm 3 mps 740 mmHg 90%
    03:00 +7°C° 0 mm 3 mps 740 mmHg 91%
    04:00 +7°C° 0 mm 3 mps 740 mmHg 91%
    05:00 +8°C° 0 mm 3 mps 740 mmHg 91%
    06:00 +9°C° 0 mm 3 mps 740 mmHg 86%
    07:00 +11°C° 0 mm 4 mps 740 mmHg 81%
    08:00 +13°C° 0 mm 4 mps 740 mmHg 76%
    09:00 +14°C° 0.1 mm 4 mps 740 mmHg 71%
    10:00 +15°C° 0.1 mm 5 mps 739 mmHg 65%
    11:00 +16°C° 0 mm 6 mps 739 mmHg 60%
    12:00 +15°C° 0.4 mm 5 mps 739 mmHg 64%
    13:00 +15°C° 0.4 mm 5 mps 739 mmHg 69%
    14:00 +14°C° 0.4 mm 5 mps 738 mmHg 73%
    15:00 +14°C° 0.1 mm 5 mps 738 mmHg 74%
    16:00 +13°C° 0.1 mm 5 mps 738 mmHg 76%
    17:00 +13°C° 0.1 mm 5 mps 738 mmHg 78%
    18:00 +13°C° 0.1 mm 5 mps 738 mmHg 81%
    19:00 +12°C° 0.1 mm 4 mps 738 mmHg 84%
    20:00 +11°C° 0.1 mm 4 mps 738 mmHg 86%
    21:00 +11°C° 0 mm 4 mps 738 mmHg 89%
    22:00 +10°C° 0 mm 3 mps 737 mmHg 91%
    23:00 +10°C° 0 mm 3 mps 737 mmHg 94%

    Tomorrow, 19 June, Tuesday

    Time Temperature Precipitation Wind Pressure Humidity
    00:00 +10°C° 0 mm 2 mps 737 mmHg 94%
    01:00 +10°C° 0 mm 2 mps 737 mmHg 95%
    02:00 +9°C° 0 mm 2 mps 737 mmHg 95%
    03:00 +9°C° 0 mm 2 mps 737 mmHg 96%
    04:00 +9°C° 0 mm 3 mps 737 mmHg 96%
    05:00 +9°C° 0 mm 3 mps 737 mmHg 96%
    06:00 +10°C° 0 mm 4 mps 737 mmHg 92%
    07:00 +12°C° 0 mm 4 mps 737 mmHg 88%
    08:00 +14°C° 0 mm 5 mps 737 mmHg 84%
    09:00 +15°C° 0.1 mm 5 mps 738 mmHg 78%
    10:00 +16°C° 0.1 mm 5 mps 738 mmHg 71%
    11:00 +19°C° 0.1 mm 6 mps 738 mmHg 65%
    12:00 +19°C° 0.5 mm 6 mps 738 mmHg 64%
    13:00 +20°C° 0.5 mm 6 mps 738 mmHg 63%
    14:00 +20°C° 0.5 mm 7 mps 738 mmHg 62%
    15:00 +20°C° 0.6 mm 6 mps 738 mmHg 64%
    16:00 +19°C° 0.6 mm 6 mps 738 mmHg 67%
    17:00 +19°C° 0.6 mm 6 mps 738 mmHg 69%
    18:00 +17°C° 0.4 mm 5 mps 738 mmHg 74%
    19:00 +17°C° 0.4 mm 4 mps 738 mmHg 78%
    20:00 +16°C° 0.4 mm 3 mps 738 mmHg 83%
    21:00 +14°C° 0.1 mm 3 mps 738 mmHg 85%
    22:00 +13°C° 0.1 mm 3 mps 738 mmHg 88%
    23:00 +12°C° 0.1 mm 3 mps 739 mmHg 91%

    Day after tomorrow, 20 June, Wednesday

    Time Temperature Precipitation Wind Pressure Humidity
    00:00 +11°C° 0 mm 3 mps 738 mmHg 91%
    01:00 +11°C° 0 mm 4 mps 738 mmHg 92%
    02:00 +11°C° 0 mm 4 mps 738 mmHg 92%
    03:00 +11°C° 0.1 mm 4 mps 738 mmHg 93%
    04:00 +11°C° 0.1 mm 4 mps 738 mmHg 93%
    05:00 +11°C° 0.1 mm 4 mps 739 mmHg 93%
    06:00 +12°C° 0 mm 4 mps 739 mmHg 89%
    07:00 +14°C° 0 mm 4 mps 739 mmHg 84%
    08:00 +15°C° 0 mm 4 mps 739 mmHg 80%
    09:00 +17°C° 0 mm 5 mps 739 mmHg 74%
    10:00 +19°C° 0 mm 5 mps 739 mmHg 68%
    11:00 +20°C° 0 mm 6 mps 739 mmHg 62%
    12:00 +21°C° 0.1 mm 6 mps 740 mmHg 60%
    13:00 +21°C° 0.1 mm 6 mps 740 mmHg 58%
    14:00 +22°C° 0.1 mm 6 mps 740 mmHg 56%
    15:00 +22°C° 0.2 mm 5 mps 740 mmHg 58%
    16:00 +22°C° 0.2 mm 5 mps 740 mmHg 61%
    17:00 +21°C° 0.2 mm 5 mps 740 mmHg 63%
    18:00 +20°C° 0.2 mm 4 mps 740 mmHg 69%
    19:00 +19°C° 0.2 mm 4 mps 740 mmHg 76%
    20:00 +18°C° 0.2 mm 3 mps 740 mmHg 82%
    21:00 +17°C° 0 mm 3 mps 740 mmHg 84%
    22:00 +15°C° 0 mm 4 mps 740 mmHg 86%
    23:00 +14°C° 0 mm 4 mps 739 mmHg 88%

    21 June, Thursday

    Time Temperature Precipitation Wind Pressure Humidity
    00:00 +14°C° 0 mm 4 mps 739 mmHg 86%
    01:00 +14°C° 0 mm 4 mps 739 mmHg 85%
    02:00 +13°C° 0 mm 4 mps 739 mmHg 83%
    03:00 +14°C° 0 mm 5 mps 738 mmHg 83%
    04:00 +14°C° 0 mm 5 mps 738 mmHg 83%
    05:00 +15°C° 0 mm 6 mps 737 mmHg 82%
    06:00 +15°C° 0.3 mm 6 mps 737 mmHg 83%
    07:00 +16°C° 0.3 mm 7 mps 737 mmHg 85%
    08:00 +16°C° 0.3 mm 7 mps 737 mmHg 86%
    09:00 +17°C° 0.3 mm 7 mps 737 mmHg 81%
    10:00 +17°C° 0.3 mm 7 mps 737 mmHg 76%
    11:00 +18°C° 0.3 mm 7 mps 737 mmHg 71%
    12:00 +18°C° 0 mm 8 mps 737 mmHg 66%
    13:00 +19°C° 0 mm 9 mps 737 mmHg 61%
    14:00 +19°C° 0 mm 9 mps 738 mmHg 56%
    15:00 +19°C° 0.2 mm 9 mps 738 mmHg 58%
    16:00 +20°C° 0.2 mm 8 mps 738 mmHg 59%
    17:00 +18°C° 0.2 mm 8 mps 738 mmHg 61%
    18:00 +17°C° 0.3 mm 7 mps 738 mmHg 65%
    19:00 +16°C° 0.3 mm 6 mps 739 mmHg 69%
    20:00 +15°C° 0.3 mm 5 mps 739 mmHg 73%
    21:00 +14°C° 0.2 mm 5 mps 739 mmHg 76%
    22:00 +13°C° 0.2 mm 5 mps 739 mmHg 78%
    23:00 +12°C° 0.2 mm 5 mps 738 mmHg 80%

    22 June, Friday

    Time Temperature Precipitation Wind Pressure Humidity
    00:00 +12°C° 0 mm 5 mps 738 mmHg 80%
    01:00 +12°C° 0 mm 5 mps 738 mmHg 80%
    02:00 +11°C° 0 mm 6 mps 738 mmHg 80%
    03:00 +11°C° 0 mm 6 mps 737 mmHg 79%
    04:00 +11°C° 0 mm 7 mps 737 mmHg 78%
    05:00 +11°C° 0 mm 7 mps 737 mmHg 77%
    06:00 +11°C° 0.1 mm 8 mps 737 mmHg 75%
    07:00 +12°C° 0.1 mm 9 mps 737 mmHg 73%
    08:00 +13°C° 0.1 mm 9 mps 737 mmHg 71%
    09:00 +13°C° 0.2 mm 9 mps 737 mmHg 71%
    10:00 +13°C° 0.2 mm 9 mps 737 mmHg 72%
    11:00 +13°C° 0.2 mm 9 mps 738 mmHg 72%
    12:00 +13°C° 0.2 mm 9 mps 738 mmHg 72%
    13:00 +13°C° 0.2 mm 9 mps 738 mmHg 73%
    14:00 +15°C° 0.2 mm 8 mps 739 mmHg 73%
    15:00 +13°C° 0.1 mm 8 mps 739 mmHg 75%
    16:00 +14°C° 0.1 mm 7 mps 739 mmHg 77%
    17:00 +14°C° 0.1 mm 7 mps 740 mmHg 78%
    18:00 +14°C° 0.1 mm 6 mps 740 mmHg 80%
    19:00 +14°C° 0.1 mm 6 mps 740 mmHg 81%
    20:00 +13°C° 0.1 mm 6 mps 740 mmHg 82%
    21:00 +13°C° 0 mm 5 mps 740 mmHg 83%
    22:00 +13°C° 0 mm 5 mps 741 mmHg 84%
    23:00 +13°C° 0 mm 5 mps 741 mmHg 84%

    23 June, Saturday

    Time Temperature Precipitation Wind Pressure Humidity
    00:00 +13°C° 0 mm 5 mps 741 mmHg 85%
    01:00 +12°C° 0 mm 4 mps 741 mmHg 87%
    02:00 +12°C° 0 mm 4 mps 741 mmHg 88%
    03:00 +12°C° 0 mm 4 mps 741 mmHg 89%
    04:00 +11°C° 0 mm 4 mps 742 mmHg 89%
    05:00 +11°C° 0 mm 4 mps 742 mmHg 90%
    06:00 +12°C° 0 mm 4 mps 742 mmHg 89%
    07:00 +13°C° 0 mm 4 mps 743 mmHg 87%
    08:00 +13°C° 0 mm 4 mps 743 mmHg 86%
    09:00 +15°C° 0 mm 5 mps 743 mmHg 82%
    10:00 +17°C° 0 mm 5 mps 743 mmHg 78%
    11:00 +19°C° 0 mm 5 mps 744 mmHg 74%
    12:00 +20°C° 0.1 mm 5 mps 744 mmHg 72%
    13:00 +21°C° 0.1 mm 5 mps 744 mmHg 70%
    14:00 +22°C° 0.1 mm 6 mps 744 mmHg 68%
    15:00 +22°C° 0.1 mm 6 mps 744 mmHg 68%
    16:00 +22°C° 0.1 mm 6 mps 744 mmHg 68%
    17:00 +22°C° 0.1 mm 6 mps 744 mmHg 68%
    18:00 +21°C° 0.1 mm 5 mps 744 mmHg 71%
    19:00 +20°C° 0.1 mm 4 mps 744 mmHg 75%
    20:00 +19°C° 0.1 mm 3 mps 744 mmHg 78%
    21:00 +18°C° 0 mm 3 mps 744 mmHg 79%
    22:00 +17°C° 0 mm 3 mps 744 mmHg 81%
    23:00 +14°C° 0 mm 3 mps 744 mmHg 82%
    Show more